This is the latest recevied weather packets stored in our database for station/object KC8ZBC. If no packets are shown the sender has not sent any weather packets the latest 10 day(s).
| Time | Temp. | Humidity | Pressure | Rain* | Wind** | Luminosity | Snow |
|---|---|---|---|---|---|---|---|
| 1777901349 | 15° C | 65% | 979.7 hPa | 0 mm | - | 296 W/m² | - |
| 1777901047 | 14.44° C | 66% | 979.7 hPa | 0 mm | - | 311 W/m² | - |
| 1777900744 | 13.89° C | 68% | 979.8 hPa | 0 mm | - | 319 W/m² | - |
| 1777900441 | 13.89° C | 67% | 979.7 hPa | 0 mm | - | 231 W/m² | - |
| 1777900138 | 13.89° C | 67% | 979.8 hPa | 0 mm | - | 274 W/m² | - |
| 1777899835 | 13.89° C | 68% | 979.8 hPa | 0 mm | - | 247 W/m² | - |
| 1777899531 | 13.33° C | 69% | 979.9 hPa | 0 mm | - | 139 W/m² | - |
| 1777899229 | 13.33° C | 70% | 979.9 hPa | 0 mm | - | 166 W/m² | - |
| 1777898926 | 13.33° C | 69% | 979.8 hPa | 0 mm | - | 160 W/m² | - |
| 1777898623 | 13.33° C | 70% | 980.1 hPa | 0 mm | - | 192 W/m² | - |
| 1777898321 | 12.78° C | 71% | 979.9 hPa | 0 mm | - | 175 W/m² | - |
| 1777898018 | 12.22° C | 72% | 979.9 hPa | 0 mm | - | 153 W/m² | - |
| 1777897714 | 12.22° C | 73% | 980 hPa | 0 mm | - | 122 W/m² | - |
| 1777897411 | 11.67° C | 74% | 979.9 hPa | 0 mm | - | 45 W/m² | - |
| 1777897107 | 11.67° C | 74% | 979.9 hPa | 0 mm | - | 39 W/m² | - |
| 1777896803 | 11.67° C | 74% | 979.8 hPa | 0 mm | - | 39 W/m² | - |
| 1777896500 | 11.11° C | 75% | 979.9 hPa | 0 mm | - | 72 W/m² | - |
| 1777896197 | 11.11° C | 75% | 980.2 hPa | 0 mm | - | 35 W/m² | - |
| 1777895895 | 11.11° C | 75% | 979.9 hPa | 0 mm | - | 37 W/m² | - |
| 1777895593 | 11.11° C | 75% | 979.9 hPa | 0 mm | - | 45 W/m² | - |
| 1777895290 | 10.56° C | 76% | 980 hPa | 0 mm | - | 38 W/m² | - |
| 1777894988 | 10.56° C | 76% | 980.1 hPa | 0 mm | - | 35 W/m² | - |
| 1777894685 | 10.56° C | 76% | 980.1 hPa | 0 mm | - | 27 W/m² | - |
| 1777894381 | 10.56° C | 76% | 979.7 hPa | 0 mm | - | 26 W/m² | - |
| 1777894079 | 10.56° C | 77% | 979.7 hPa | 0 mm | - | 23 W/m² | - |
* Rain latest hour (hover to see other rain measurements)
** Current wind speed in m/s (hover to see current wind gust speed)